STARLINK-36318, 68048

Orbit data source: Space-Track

STARLINK-36318, 68048 is a payload satellite owned by SpaceX/Seattle (US) in LEO that was launched on Mon, 02 Mar 2026 UTC via an FALCON 9 launch vehicle from the Air Force Eastern Test Range (AFETR). Payload-class satellites include a variety of spacecraft equipped with specific instruments for various scientific and technological missions. These include communications satellites like Starlink; space stations such as the ISS; scientific satellites like the Hubble; Earth observation satellites from companies like Planet Labs, Umbra, and HawkEye 360; GPS; miniature CubeSats for education and research; and military/defense satellites.

Loading next visibility...
Identifier
68048, 2026-041J
Orbit
LEO
Country
Flag of USUS
Related business
Manufacturer
SpaceX/Seattle
Mission
Operational spacecraft
Bus & Motor
STARLINK V2MO, Unknown motor
Mass
575 kg wet, ~530 kg dry
Launch date (UTC)
2026-03-02 (1 month ago)
Launch vehicle
FALCON 9
Launch site
Air Force Eastern Test Range (AFETR)
Object type
Payload
Rocket body
Debris
Shape & HBR
Unknown shape, 17.7 m
Radar Cross Section
RCS unknown

Expand to show TLE details & history
Last TLE update: 7 hours ago

TLE from 7 hours ago
0 STARLINK-36318
1 68048U 26041J   26105.25002315 -.01832096  00000-0 -27933-1 0  9997
2 68048  53.1593 240.4039 0001192  98.3235 164.5935 15.57148542  6011
Epoch: 2026-04-15T06:00Z
TLE epoch observation values (Epoch: 2026-04-15T06:00:02.000Z)
Latitude
-52.73724°
Longitude
-154.69381°
Altitude
415.002 km
Speed
7.661 km/s
True Right ascension
09h 14m 54s
True Declination
-52° 33' 47"
Sunlit
Object was in full shadow at epoch
Visualization orbit readout
Latitude
Unknown
Longitude
Unknown
Altitude
Unknown
Speed
Unknown
Apparent Right ascension
Unknown
Apparent Declination
Unknown
Sunlit
N/A
Visualization observer readout
Local Sidereal Time
19:32:10
Azimuth
Unknown
Elevation
Unknown
Doppler factor
Unknown
Orbital elements
Apogee altitude
396.981 km
Perigee altitude
395.366 km
Semi-major axis
6,774.311 km
Eccentricity
0.00012
Inclination
53.1593°
RAAN
240.4039°
Arg. of periapsis
98.3235°
True anomaly
164.59713°
Mean anomaly
164.5935°
Eccentric anomaly
164.59531°
Mean motion
3.89265 °/min
Orbital period
92.48 mins
BSTAR
-0.027933
Loading maneuver chart data...
Computing Atmospheric mass density...
Loading historical data...
Loading historical data...
Loading historical data...
Loading historical data...
Loading historical data...
Loading historical data...
Loading historical data...

Documentation

Showing up to 5 results
|